Tracking 30058 objects as of 9-Dec-2024
HD Live streaming from Space Station
objects crossing your sky now

STARLINK-5619

Track STARLINK-5619 now!
10-day predictions
STARLINK-5619 is classified as:


NORAD ID: 55755
Int'l Code: 2023-028Q
Perigee: 577.3 km
Apogee: 581.0 km
Inclination: 70.0 °
Period: 96.1 minutes
Semi major axis: 6950 km
RCS: Unknown
Launch date: March 3, 2023
Source: United States (US)
Launch site: AIR FORCE WESTERN TEST RANGE (AFWTR)
Your satellite tracking list
Your tracking list is empty




NASA's NSSDC Master Catalog

Two Line Element Set (TLE):
1 55755U 23028Q   24344.18313870  .00000272  00000-0  30586-4 0  9997
2 55755  70.0007 312.7793 0002656 271.6581  88.4274 14.98341507 97814
Source of the keplerian elements: AFSPC